19-10-2022, 00:00:05,     94,    0.0,    9.3,   0.00,   0.00, 1021.6,   79.5, -999.0
19-10-2022, 00:00:15,     94,    0.0,    9.4,   0.00,   0.00, 1021.6,   79.5, -999.0
19-10-2022, 00:00:25,     94,    0.0,    9.4,   0.00,   0.00, 1021.6,   79.5, -999.0
19-10-2022, 00:00:35,     94,    0.0,    9.4,   0.00,   0.00, 1021.6,   79.5, -999.0
19-10-2022, 00:00:45,     94,    0.0,    9.4,   0.00,   0.00, 1021.6,   79.2, -999.0
19-10-2022, 00:00:55,     94,    0.0,    9.4,   0.00,   0.00, 1021.6,   79.0, -999.0
19-10-2022, 00:01:05,     94,    0.0,    9.4,   0.00,   0.00, 1021.6,   79.0, -999.0
19-10-2022, 00:01:15,     93,    0.0,    9.4,   0.00,   0.00, 1021.6,   78.9, -999.0
19-10-2022, 00:01:24,     87,    0.6,    9.3,   0.00,   0.00, 1021.7,   79.2, -999.0
19-10-2022, 00:01:35,     87,    0.0,    9.3,   0.00,   0.00, 1021.6,   78.9, -999.0
19-10-2022, 00:01:44,     87,    0.6,    9.3,   0.00,   0.00, 1021.7,   79.2, -999.0
19-10-2022, 00:01:54,     86,    0.0,    9.4,   0.00,   0.00, 1021.6,   78.9, -999.0
19-10-2022, 00:02:04,     87,    0.0,    9.2,   0.00,   0.00, 1021.6,   78.9, -999.0
19-10-2022, 00:02:14,     84,    0.9,    9.3,   0.00,   0.00, 1021.7,   79.3, -999.0
19-10-2022, 00:02:24,     83,    0.6,    9.2,   0.00,   0.00, 1021.6,   79.3, -999.0
19-10-2022, 00:02:34,     83,    0.0,    9.2,   0.00,   0.00, 1021.6,   78.9, -999.0
19-10-2022, 00:02:44,     83,    0.0,    9.2,   0.00,   0.00, 1021.6,   78.9, -999.0
19-10-2022, 00:02:54,     84,    0.1,    9.2,   0.00,   0.00, 1021.6,   79.2, -999.0
19-10-2022, 00:03:04,     84,    0.7,    9.3,   0.00,   0.00, 1021.6,   79.4, -999.0
19-10-2022, 00:03:14,     45,    1.2,    9.3,   0.00,   0.00, 1021.7,   79.5, -999.0
19-10-2022, 00:03:24,     43,    2.0,    9.3,   0.00,   0.00, 1021.7,   79.6, -999.0
19-10-2022, 00:03:34,     43,    1.4,    9.2,   0.00,   0.00, 1021.7,   79.5, -999.0
19-10-2022, 00:03:44,     42,    0.2,    9.1,   0.00,   0.00, 1021.6,   79.3, -999.0
19-10-2022, 00:03:54,     43,    0.0,    9.2,   0.00,   0.00, 1021.6,   79.3, -999.0
19-10-2022, 00:04:04,     43,    0.4,    9.2,   0.00,   0.00, 1021.6,   79.6, -999.0
19-10-2022, 00:04:14,     42,    0.2,    9.2,   0.00,   0.00, 1021.6,   79.6, -999.0
19-10-2022, 00:04:24,     42,    0.2,    9.2,   0.00,   0.00, 1021.6,   79.6, -999.0
19-10-2022, 00:04:33,     42,    0.0,    9.3,   0.00,   0.00, 1021.5,   79.4, -999.0
19-10-2022, 00:04:44,     43,    0.0,    9.3,   0.00,   0.00, 1021.6,   79.7, -999.0
19-10-2022, 00:04:53,     42,    0.0,    9.3,   0.00,   0.00, 1021.5,   79.7, -999.0
19-10-2022, 00:05:03,     42,    0.0,    9.4,   0.00,   0.00, 1021.5,   79.6, -999.0
19-10-2022, 00:05:13,     42,    0.3,    9.5,   0.00,   0.00, 1021.6,   79.7, -999.0
19-10-2022, 00:05:23,     42,    0.0,    9.4,   0.00,   0.00, 1021.5,   79.3, -999.0
19-10-2022, 00:05:33,     42,    0.0,    9.4,   0.00,   0.00, 1021.5,   79.3, -999.0
19-10-2022, 00:05:43,     43,    1.1,    9.5,   0.00,   0.00, 1021.6,   79.5, -999.0
19-10-2022, 00:05:53,     43,    0.6,    9.4,   0.00,   0.00, 1021.6,   79.5, -999.0
19-10-2022, 00:06:03,     43,    0.5,    9.3,   0.00,   0.00, 1021.6,   79.3, -999.0
19-10-2022, 00:06:13,     43,    0.1,    9.3,   0.00,   0.00, 1021.6,   79.1, -999.0
19-10-2022, 00:06:23,     43,    0.2,    9.4,   0.00,   0.00, 1021.5,   79.2, -999.0
19-10-2022, 00:06:33,     43,    0.0,    9.3,   0.00,   0.00, 1021.5,   79.2, -999.0
19-10-2022, 00:06:43,     43,    1.4,    9.4,   0.00,   0.00, 1021.6,   79.4, -999.0
19-10-2022, 00:06:53,     43,    0.6,    9.5,   0.00,   0.00, 1021.6,   79.4, -999.0
19-10-2022, 00:07:03,     43,    0.4,    9.4,   0.00,   0.00, 1021.5,   79.2, -999.0
19-10-2022, 00:07:13,     43,    0.6,    9.4,   0.00,   0.00, 1021.6,   79.3, -999.0
19-10-2022, 00:07:23,     43,    0.0,    9.3,   0.00,   0.00, 1021.5,   78.9, -999.0
19-10-2022, 00:07:32,     43,    0.0,    9.3,   0.00,   0.00, 1021.5,   79.0, -999.0
19-10-2022, 00:07:42,     43,    0.0,    9.4,   0.00,   0.00, 1021.5,   79.1, -999.0
19-10-2022, 00:07:53,     43,    0.1,    9.4,   0.00,   0.00, 1021.5,   79.3, -999.0
19-10-2022, 00:08:02,     43,    0.5,    9.4,   0.00,   0.00, 1021.5,   79.4, -999.0
19-10-2022, 00:08:12,     43,    0.0,    9.4,   0.00,   0.00, 1021.4,   79.0, -999.0
19-10-2022, 00:08:22,     43,    0.0,    9.4,   0.00,   0.00, 1021.5,   79.0, -999.0
19-10-2022, 00:08:32,     43,    0.0,    9.3,   0.00,   0.00, 1021.4,   79.0, -999.0
19-10-2022, 00:08:42,     43,    0.1,    9.4,   0.00,   0.00, 1021.5,   79.1, -999.0
19-10-2022, 00:08:52,     44,    0.1,    9.3,   0.00,   0.00, 1021.4,   79.0, -999.0
19-10-2022, 00:09:02,     45,    1.2,    9.4,   0.00,   0.00, 1021.6,   79.4, -999.0
19-10-2022, 00:09:12,     44,    1.6,    9.4,   0.00,   0.00, 1021.6,   79.3, -999.0
19-10-2022, 00:09:22,     41,    2.0,    9.4,   0.00,   0.00, 1021.6,   79.4, -999.0
19-10-2022, 00:09:32,    102,    2.0,    9.4,   0.00,   0.00, 1021.5,   79.3, -999.0
19-10-2022, 00:09:42,     52,    0.7,    9.3,   0.00,   0.00, 1021.5,   79.3, -999.0
19-10-2022, 00:09:52,     49,    2.8,    9.3,   0.00,   0.00, 1021.5,   79.4, -999.0
19-10-2022, 00:10:02,     40,    2.6,    9.3,   0.00,   0.00, 1021.5,   79.5, -999.0
19-10-2022, 00:10:11,     39,    0.4,    9.2,   0.00,   0.00, 1021.4,   79.3, -999.0
19-10-2022, 00:10:22,     41,    1.6,    9.2,   0.00,   0.00, 1021.5,   79.4, -999.0
19-10-2022, 00:10:32,     40,    2.6,    9.3,   0.00,   0.00, 1021.5,   79.6, -999.0
19-10-2022, 00:10:41,     40,    1.0,    9.2,   0.00,   0.00, 1021.5,   79.6, -999.0
19-10-2022, 00:10:51,     40,    0.0,    9.2,   0.00,   0.00, 1021.4,   79.4, -999.0
19-10-2022, 00:11:02,     41,    0.0,    9.1,   0.00,   0.00, 1021.4,   79.4, -999.0
19-10-2022, 00:11:11,     34,    1.4,    9.3,   0.00,   0.00, 1021.5,   79.9, -999.0
19-10-2022, 00:11:21,     34,    0.2,    9.3,   0.00,   0.00, 1021.4,   79.7, -999.0
19-10-2022, 00:11:31,     34,    0.4,    9.3,   0.00,   0.00, 1021.5,   79.9, -999.0
19-10-2022, 00:11:41,     34,    0.9,    9.2,   0.00,   0.00, 1021.5,   80.0, -999.0
19-10-2022, 00:11:51,     34,    0.6,    9.3,   0.00,   0.00, 1021.5,   79.9, -999.0
19-10-2022, 00:12:01,     48,    1.0,    9.3,   0.00,   0.00, 1021.5,   79.9, -999.0
19-10-2022, 00:12:11,     48,    0.8,    9.3,   0.00,   0.00, 1021.5,   79.8, -999.0
19-10-2022, 00:12:21,     51,    0.1,    9.2,   0.00,   0.00, 1021.4,   79.7, -999.0
19-10-2022, 00:12:31,     51,    0.4,    9.2,   0.00,   0.00, 1021.5,   79.8, -999.0
19-10-2022, 00:12:41,     49,    1.1,    9.3,   0.00,   0.00, 1021.5,   80.0, -999.0
19-10-2022, 00:12:51,     48,    0.1,    9.3,   0.00,   0.00, 1021.4,   79.9, -999.0
19-10-2022, 00:13:01,     48,    0.0,    9.3,   0.00,   0.00, 1021.3,   79.7, -999.0
19-10-2022, 00:13:11,     49,    0.0,    9.2,   0.00,   0.00, 1021.3,   79.7, -999.0
19-10-2022, 00:13:20,     49,    0.0,    9.3,   0.00,   0.00, 1021.3,   79.7, -999.0
19-10-2022, 00:13:31,     49,    0.7,    9.3,   0.00,   0.00, 1021.4,   79.9, -999.0
19-10-2022, 00:13:41,    103,    1.3,    9.3,   0.00,   0.00, 1021.5,   79.9, -999.0
19-10-2022, 00:13:50,    103,    0.8,    9.2,   0.00,   0.00, 1021.5,   79.9, -999.0
19-10-2022, 00:14:00,     52,    1.0,    9.2,   0.00,   0.00, 1021.5,   79.9, -999.0
19-10-2022, 00:14:11,     52,    1.4,    9.3,   0.00,   0.00, 1021.4,   79.8, -999.0
19-10-2022, 00:14:20,     48,    2.2,    9.2,   0.00,   0.00, 1021.4,   79.8, -999.0
19-10-2022, 00:14:30,     48,    1.2,    9.2,   0.00,   0.00, 1021.4,   79.9, -999.0
19-10-2022, 00:14:40,     48,    0.0,    9.1,   0.00,   0.00, 1021.3,   79.6, -999.0
19-10-2022, 00:14:50,     47,    1.2,    9.2,   0.00,   0.00, 1021.4,   80.0, -999.0
19-10-2022, 00:15:00,     47,    1.7,    9.2,   0.00,   0.00, 1021.4,   80.1, -999.0
19-10-2022, 00:15:10,     47,    0.2,    9.2,   0.00,   0.00, 1021.3,   79.9, -999.0
19-10-2022, 00:15:20,     47,    0.7,    9.2,   0.00,   0.00, 1021.4,   80.1, -999.0
19-10-2022, 00:15:30,     47,    0.9,    9.2,   0.00,   0.00, 1021.4,   80.2, -999.0
19-10-2022, 00:15:40,     47,    0.8,    9.2,   0.00,   0.00, 1021.4,   80.2, -999.0
19-10-2022, 00:15:50,     47,    1.1,    9.2,   0.00,   0.00, 1021.4,   80.2, -999.0
19-10-2022, 00:16:00,     47,    1.3,    9.1,   0.00,   0.00, 1021.4,   80.3, -999.0
19-10-2022, 00:16:10,     47,    0.8,    9.1,   0.00,   0.00, 1021.4,   80.4, -999.0
19-10-2022, 00:16:20,     47,    0.9,    9.3,   0.00,   0.00, 1021.4,   80.5, -999.0
19-10-2022, 00:16:29,     48,    0.6,    9.2,   0.00,   0.00, 1021.4,   80.4, -999.0
19-10-2022, 00:16:40,     48,    0.4,    9.2,   0.00,   0.00, 1021.4,   80.3, -999.0
19-10-2022, 00:16:50,     24,    0.9,    9.2,   0.00,   0.00, 1021.4,   80.5, -999.0
19-10-2022, 00:16:59,     23,    0.1,    9.1,   0.00,   0.00, 1021.3,   80.3, -999.0
19-10-2022, 00:17:09,     24,    1.2,    9.2,   0.00,   0.00, 1021.4,   80.4, -999.0
19-10-2022, 00:17:19,     33,    1.2,    9.2,   0.00,   0.00, 1021.4,   80.5, -999.0
19-10-2022, 00:17:29,     35,    0.4,    9.1,   0.00,   0.00, 1021.3,   80.3, -999.0
19-10-2022, 00:17:39,     35,    0.4,    9.2,   0.00,   0.00, 1021.4,   80.4, -999.0
19-10-2022, 00:17:49,     36,    0.4,    9.1,   0.00,   0.00, 1021.3,   80.3, -999.0
19-10-2022, 00:17:59,     35,    0.0,    9.1,   0.00,   0.00, 1021.3,   80.1, -999.0
19-10-2022, 00:18:09,     35,    0.0,    9.1,   0.00,   0.00, 1021.3,   80.1, -999.0
19-10-2022, 00:18:19,     35,    0.0,    9.1,   0.00,   0.00, 1021.2,   80.1, -999.0
19-10-2022, 00:18:29,     45,    1.2,    9.1,   0.00,   0.00, 1021.4,   80.5, -999.0
19-10-2022, 00:18:39,     61,    2.4,    9.2,   0.00,   0.00, 1021.4,   80.6, -999.0
19-10-2022, 00:18:49,     60,    1.0,    9.2,   0.00,   0.00, 1021.4,   80.6, -999.0
19-10-2022, 00:18:59,     34,    1.2,    9.2,   0.00,   0.00, 1021.4,   80.7, -999.0
19-10-2022, 00:19:09,     34,    0.4,    9.2,   0.00,   0.00, 1021.3,   80.6, -999.0
19-10-2022, 00:19:19,     34,    0.0,    9.1,   0.00,   0.00, 1021.3,   80.5, -999.0
19-10-2022, 00:19:29,     34,    0.7,    9.1,   0.00,   0.00, 1021.3,   80.6, -999.0
19-10-2022, 00:19:38,     34,    0.4,    9.1,   0.00,   0.00, 1021.4,   80.7, -999.0
19-10-2022, 00:19:49,     27,    1.9,    9.1,   0.00,   0.00, 1021.4,   80.8, -999.0
19-10-2022, 00:19:58,     27,    1.3,    9.2,   0.00,   0.00, 1021.4,   80.9, -999.0
19-10-2022, 00:20:08,     37,    1.6,    9.1,   0.00,   0.00, 1021.4,   80.8, -999.0
19-10-2022, 00:20:18,     39,    0.7,    9.1,   0.00,   0.00, 1021.4,   80.9, -999.0
19-10-2022, 00:20:28,     39,    0.3,    9.2,   0.00,   0.00, 1021.3,   80.8, -999.0
19-10-2022, 00:20:38,     65,    0.4,    9.0,   0.00,   0.00, 1021.3,   80.7, -999.0
19-10-2022, 00:20:48,     77,    0.5,    9.2,   0.00,   0.00, 1021.3,   80.9, -999.0
19-10-2022, 00:20:58,     77,    0.5,    9.2,   0.00,   0.00, 1021.3,   81.1, -999.0
19-10-2022, 00:21:08,     76,    0.8,    9.3,   0.00,   0.00, 1021.3,   81.3, -999.0
19-10-2022, 00:21:18,     71,    1.3,    9.3,   0.00,   0.00, 1021.4,   81.4, -999.0
19-10-2022, 00:21:28,     71,    0.0,    9.3,   0.00,   0.00, 1021.2,   80.9, -999.0
19-10-2022, 00:21:38,     71,    0.0,    9.3,   0.00,   0.00, 1021.2,   80.8, -999.0
19-10-2022, 00:21:48,     71,    0.3,    9.4,   0.00,   0.00, 1021.3,   80.9, -999.0
19-10-2022, 00:21:58,     71,    0.4,    9.5,   0.00,   0.00, 1021.3,   80.9, -999.0
19-10-2022, 00:22:08,     71,    0.6,    9.4,   0.00,   0.00, 1021.3,   80.9, -999.0
19-10-2022, 00:22:18,     71,    0.3,    9.3,   0.00,   0.00, 1021.3,   80.5, -999.0
19-10-2022, 00:22:28,     61,    0.8,    9.3,   0.00,   0.00, 1021.3,   80.5, -999.0
19-10-2022, 00:22:38,     61,    0.0,    9.2,   0.00,   0.00, 1021.2,   80.2, -999.0
19-10-2022, 00:22:47,     61,    0.3,    9.3,   0.00,   0.00, 1021.3,   80.4, -999.0
19-10-2022, 00:22:58,     62,    0.3,    9.3,   0.00,   0.00, 1021.3,   80.6, -999.0
19-10-2022, 00:23:07,     61,    0.5,    9.2,   0.00,   0.00, 1021.3,   80.5, -999.0
19-10-2022, 00:23:17,     61,    0.0,    9.2,   0.00,   0.00, 1021.2,   80.1, -999.0
19-10-2022, 00:23:27,     61,    0.4,    9.2,   0.00,   0.00, 1021.3,   80.3, -999.0
19-10-2022, 00:23:37,     57,    1.8,    9.1,   0.00,   0.00, 1021.4,   80.8, -999.0
19-10-2022, 00:23:47,     57,    0.8,    9.3,   0.00,   0.00, 1021.3,   80.7, -999.0
19-10-2022, 00:23:57,     57,    0.8,    9.3,   0.00,   0.00, 1021.4,   80.6, -999.0
19-10-2022, 00:24:07,     57,    0.2,    9.2,   0.00,   0.00, 1021.3,   80.5, -999.0
19-10-2022, 00:24:17,     56,    0.5,    9.3,   0.00,   0.00, 1021.3,   80.5, -999.0
19-10-2022, 00:24:27,     56,    0.0,    9.1,   0.00,   0.00, 1021.2,   80.3, -999.0
19-10-2022, 00:24:37,     56,    0.0,    9.1,   0.00,   0.00, 1021.3,   80.4, -999.0
19-10-2022, 00:24:47,     55,    0.1,    9.1,   0.00,   0.00, 1021.3,   80.5, -999.0
19-10-2022, 00:24:57,     77,    1.5,    9.2,   0.00,   0.00, 1021.3,   80.7, -999.0
19-10-2022, 00:25:07,     55,    0.9,    9.1,   0.00,   0.00, 1021.3,   80.6, -999.0
19-10-2022, 00:25:17,     56,    1.1,    9.1,   0.00,   0.00, 1021.3,   80.8, -999.0
19-10-2022, 00:25:27,     55,    1.0,    9.2,   0.00,   0.00, 1021.3,   80.9, -999.0
19-10-2022, 00:25:37,     54,    0.4,    9.3,   0.00,   0.00, 1021.3,   80.9, -999.0
19-10-2022, 00:25:46,     54,    0.0,    9.2,   0.00,   0.00, 1021.2,   80.9, -999.0
19-10-2022, 00:25:56,     54,    1.2,    9.3,   0.00,   0.00, 1021.3,   81.3, -999.0
19-10-2022, 00:26:07,     54,    0.1,    9.2,   0.00,   0.00, 1021.3,   81.0, -999.0
19-10-2022, 00:26:16,     54,    0.0,    9.2,   0.00,   0.00, 1021.2,   80.7, -999.0
19-10-2022, 00:26:26,     55,    0.0,    9.1,   0.00,   0.00, 1021.2,   80.8, -999.0
19-10-2022, 00:26:36,     53,    0.6,    9.2,   0.00,   0.00, 1021.3,   80.9, -999.0
19-10-2022, 00:26:46,     53,    0.9,    9.2,   0.00,   0.00, 1021.3,   81.0, -999.0
19-10-2022, 00:26:56,     52,    0.1,    9.0,   0.00,   0.00, 1021.2,   80.6, -999.0
19-10-2022, 00:27:06,     53,    0.1,    9.1,   0.00,   0.00, 1021.2,   80.5, -999.0
19-10-2022, 00:27:16,     53,    0.2,    9.1,   0.00,   0.00, 1021.3,   80.7, -999.0
19-10-2022, 00:27:26,     53,    0.0,    9.0,   0.00,   0.00, 1021.2,   80.5, -999.0
19-10-2022, 00:27:36,     52,    0.0,    9.0,   0.00,   0.00, 1021.2,   80.6, -999.0
19-10-2022, 00:27:46,     45,    0.8,    9.1,   0.00,   0.00, 1021.3,   80.9, -999.0
19-10-2022, 00:27:56,     42,    2.7,    9.1,   0.00,   0.00, 1021.4,   81.1, -999.0
19-10-2022, 00:28:06,     65,    2.1,    9.1,   0.00,   0.00, 1021.4,   81.2, -999.0
19-10-2022, 00:28:16,    105,    1.7,    9.0,   0.00,   0.00, 1021.3,   81.3, -999.0
19-10-2022, 00:28:26,     74,    1.0,    9.1,   0.00,   0.00, 1021.4,   81.4, -999.0
19-10-2022, 00:28:36,     74,    0.2,    9.2,   0.00,   0.00, 1021.3,   81.2, -999.0
19-10-2022, 00:28:46,     74,    0.4,    9.2,   0.00,   0.00, 1021.3,   81.4, -999.0
19-10-2022, 00:28:55,     73,    0.2,    9.1,   0.00,   0.00, 1021.2,   81.2, -999.0
19-10-2022, 00:29:05,     73,    0.5,    9.2,   0.00,   0.00, 1021.3,   81.3, -999.0
19-10-2022, 00:29:16,     73,    0.0,    9.1,   0.00,   0.00, 1021.2,   80.9, -999.0
19-10-2022, 00:29:25,     74,    0.4,    9.0,   0.00,   0.00, 1021.3,   81.1, -999.0
19-10-2022, 00:29:35,     71,    0.9,    9.2,   0.00,   0.00, 1021.4,   81.3, -999.0
19-10-2022, 00:29:45,     71,    0.6,    9.1,   0.00,   0.00, 1021.3,   81.2, -999.0
19-10-2022, 00:29:55,     75,    2.0,    9.2,   0.00,   0.00, 1021.4,   81.3, -999.0
19-10-2022, 00:30:05,     65,    1.5,    9.2,   0.00,   0.00, 1021.4,   81.4, -999.0
19-10-2022, 00:30:15,     59,    0.4,    9.0,   0.00,   0.00, 1021.3,   81.3, -999.0
19-10-2022, 00:30:25,     57,    1.1,    9.0,   0.00,   0.00, 1021.4,   81.4, -999.0
19-10-2022, 00:30:35,     46,    1.8,    9.2,   0.00,   0.00, 1021.3,   81.5, -999.0
19-10-2022, 00:30:45,     41,    1.6,    9.1,   0.00,   0.00, 1021.4,   81.4, -999.0
19-10-2022, 00:30:55,     44,    1.2,    9.1,   0.00,   0.00, 1021.4,   81.4, -999.0
19-10-2022, 00:31:05,     45,    1.5,    9.0,   0.00,   0.00, 1021.4,   81.5, -999.0
19-10-2022, 00:31:15,     44,    0.0,    9.0,   0.00,   0.00, 1021.2,   81.1, -999.0
19-10-2022, 00:31:25,     47,    0.9,    9.1,   0.00,   0.00, 1021.3,   81.4, -999.0
19-10-2022, 00:31:34,     47,    0.9,    9.1,   0.00,   0.00, 1021.3,   81.5, -999.0
19-10-2022, 00:31:45,     47,    1.0,    9.0,   0.00,   0.00, 1021.4,   81.6, -999.0
19-10-2022, 00:31:55,     45,    1.3,    9.0,   0.00,   0.00, 1021.4,   81.6, -999.0
19-10-2022, 00:32:04,     45,    0.5,    9.1,   0.00,   0.00, 1021.4,   81.7, -999.0
19-10-2022, 00:32:14,     45,    0.0,    9.1,   0.00,   0.00, 1021.2,   81.3, -999.0
19-10-2022, 00:32:25,     45,    0.0,    9.0,   0.00,   0.00, 1021.2,   81.4, -999.0
19-10-2022, 00:32:34,     45,    0.0,    9.1,   0.00,   0.00, 1021.2,   81.2, -999.0
19-10-2022, 00:32:44,     45,    0.4,    8.9,   0.00,   0.00, 1021.3,   81.5, -999.0
19-10-2022, 00:32:54,     45,    0.1,    9.0,   0.00,   0.00, 1021.3,   81.4, -999.0
19-10-2022, 00:33:04,     45,    0.1,    9.0,   0.00,   0.00, 1021.2,   81.3, -999.0
19-10-2022, 00:33:14,     45,    1.1,    9.1,   0.00,   0.00, 1021.4,   81.7, -999.0
19-10-2022, 00:33:24,     45,    1.1,    9.1,   0.00,   0.00, 1021.4,   81.7, -999.0
19-10-2022, 00:33:34,     45,    0.2,    9.0,   0.00,   0.00, 1021.4,   81.6, -999.0
19-10-2022, 00:33:44,     45,    0.0,    9.0,   0.00,   0.00, 1021.3,   81.3, -999.0
19-10-2022, 00:33:54,     45,    0.0,    9.0,   0.00,   0.00, 1021.3,   81.3, -999.0
19-10-2022, 00:34:04,     45,    0.9,    9.1,   0.00,   0.00, 1021.3,   81.6, -999.0
19-10-2022, 00:34:14,     34,    2.1,    9.1,   0.00,   0.00, 1021.4,   81.8, -999.0
19-10-2022, 00:34:24,     35,    1.8,    9.2,   0.00,   0.00, 1021.4,   81.8, -999.0
19-10-2022, 00:34:34,     35,    1.1,    9.1,   0.00,   0.00, 1021.4,   81.8, -999.0
19-10-2022, 00:34:43,     36,    0.0,    9.0,   0.00,   0.00, 1021.2,   81.5, -999.0
19-10-2022, 00:34:54,     36,    0.4,    9.0,   0.00,   0.00, 1021.4,   81.7, -999.0
19-10-2022, 00:35:04,     36,    0.7,    9.0,   0.00,   0.00, 1021.3,   81.8, -999.0
19-10-2022, 00:35:13,     35,    1.4,    9.1,   0.00,   0.00, 1021.4,   82.0, -999.0
19-10-2022, 00:35:23,     36,    0.8,    9.0,   0.00,   0.00, 1021.3,   81.9, -999.0
19-10-2022, 00:35:34,     79,    0.6,    9.0,   0.00,   0.00, 1021.3,   81.9, -999.0
19-10-2022, 00:35:43,     79,    0.0,    9.0,   0.00,   0.00, 1021.2,   81.5, -999.0
19-10-2022, 00:35:53,     80,    0.0,    9.0,   0.00,   0.00, 1021.3,   81.6, -999.0
19-10-2022, 00:36:03,     80,    0.1,    9.0,   0.00,   0.00, 1021.3,   81.7, -999.0
19-10-2022, 00:36:13,     79,    0.0,    9.0,   0.00,   0.00, 1021.3,   81.7, -999.0
19-10-2022, 00:36:23,     40,    1.4,    9.1,   0.00,   0.00, 1021.4,   82.0, -999.0
19-10-2022, 00:36:33,     40,    1.1,    9.1,   0.00,   0.00, 1021.4,   82.1, -999.0
19-10-2022, 00:36:43,     59,    1.8,    9.1,   0.00,   0.00, 1021.4,   82.1, -999.0
19-10-2022, 00:36:53,     51,    1.2,    9.1,   0.00,   0.00, 1021.4,   82.1, -999.0
19-10-2022, 00:37:03,     51,    0.3,    9.1,   0.00,   0.00, 1021.3,   82.0, -999.0
19-10-2022, 00:37:13,     51,    0.3,    9.1,   0.00,   0.00, 1021.3,   82.2, -999.0
19-10-2022, 00:37:23,     51,    0.0,    9.1,   0.00,   0.00, 1021.3,   82.0, -999.0
19-10-2022, 00:37:33,     50,    0.8,    9.1,   0.00,   0.00, 1021.4,   82.2, -999.0
19-10-2022, 00:37:43,     51,    0.4,    9.0,   0.00,   0.00, 1021.3,   82.0, -999.0
19-10-2022, 00:37:52,     51,    0.6,    9.1,   0.00,   0.00, 1021.3,   82.0, -999.0
19-10-2022, 00:38:03,     50,    0.3,    9.1,   0.00,   0.00, 1021.3,   81.9, -999.0
19-10-2022, 00:38:13,     50,    0.1,    9.0,   0.00,   0.00, 1021.3,   81.9, -999.0
19-10-2022, 00:38:22,     50,    0.0,    9.0,   0.00,   0.00, 1021.2,   81.9, -999.0
19-10-2022, 00:38:32,     50,    0.0,    9.2,   0.00,   0.00, 1021.2,   81.9, -999.0
19-10-2022, 00:38:43,     51,    0.2,    9.1,   0.00,   0.00, 1021.3,   82.0, -999.0
19-10-2022, 00:38:52,     50,    0.0,    9.2,   0.00,   0.00, 1021.3,   82.0, -999.0
19-10-2022, 00:39:02,     51,    0.0,    9.2,   0.00,   0.00, 1021.2,   81.9, -999.0
19-10-2022, 00:39:12,     50,    0.1,    9.2,   0.00,   0.00, 1021.3,   82.1, -999.0
19-10-2022, 00:39:22,     50,    0.0,    9.3,   0.00,   0.00, 1021.2,   81.9, -999.0
19-10-2022, 00:39:32,     50,    0.0,    9.2,   0.00,   0.00, 1021.2,   82.0, -999.0
19-10-2022, 00:39:42,     50,    0.1,    9.2,   0.00,   0.00, 1021.3,   82.1, -999.0
19-10-2022, 00:39:52,     51,    0.0,    9.2,   0.00,   0.00, 1021.2,   81.8, -999.0
19-10-2022, 00:40:02,     50,    0.3,    9.3,   0.00,   0.00, 1021.3,   81.9, -999.0
19-10-2022, 00:40:12,     50,    0.0,    9.2,   0.00,   0.00, 1021.3,   81.7, -999.0
19-10-2022, 00:40:22,     50,    0.0,    9.1,   0.00,   0.00, 1021.2,   81.5, -999.0
19-10-2022, 00:40:32,     51,    0.0,    9.1,   0.00,   0.00, 1021.2,   81.5, -999.0
19-10-2022, 00:40:42,     51,    0.0,    9.1,   0.00,   0.00, 1021.2,   81.4, -999.0
19-10-2022, 00:40:52,     50,    0.0,    9.0,   0.00,   0.00, 1021.2,   81.3, -999.0
19-10-2022, 00:41:01,     55,    0.3,    9.1,   0.00,   0.00, 1021.3,   81.5, -999.0
19-10-2022, 00:41:12,     54,    1.8,    9.2,   0.00,   0.00, 1021.3,   81.7, -999.0
19-10-2022, 00:41:22,     54,    1.3,    9.2,   0.00,   0.00, 1021.3,   81.8, -999.0
19-10-2022, 00:41:31,     40,    1.4,    9.2,   0.00,   0.00, 1021.3,   81.9, -999.0
19-10-2022, 00:41:41,     63,    0.9,    9.2,   0.00,   0.00, 1021.3,   81.9, -999.0
19-10-2022, 00:41:51,     62,    0.1,    9.1,   0.00,   0.00, 1021.2,   81.6, -999.0
19-10-2022, 00:42:01,     62,    0.1,    9.0,   0.00,   0.00, 1021.2,   81.7, -999.0
19-10-2022, 00:42:11,     62,    0.0,    9.1,   0.00,   0.00, 1021.2,   81.6, -999.0
19-10-2022, 00:42:21,     62,    0.0,    9.1,   0.00,   0.00, 1021.2,   81.6, -999.0
19-10-2022, 00:42:31,     63,    0.0,    9.1,   0.00,   0.00, 1021.2,   81.6, -999.0
19-10-2022, 00:42:41,     62,    0.0,    8.9,   0.00,   0.00, 1021.2,   81.6, -999.0
19-10-2022, 00:42:51,     62,    0.0,    9.1,   0.00,   0.00, 1021.2,   81.8, -999.0
19-10-2022, 00:43:01,     61,    0.5,    9.1,   0.00,   0.00, 1021.2,   81.8, -999.0
19-10-2022, 00:43:11,     61,    0.0,    9.0,   0.00,   0.00, 1021.2,   81.6, -999.0
19-10-2022, 00:43:21,     61,    0.0,    9.0,   0.00,   0.00, 1021.1,   81.4, -999.0
19-10-2022, 00:43:31,     61,    0.0,    9.0,   0.00,   0.00, 1021.1,   81.3, -999.0
19-10-2022, 00:43:41,     58,    0.0,    9.0,   0.00,   0.00, 1021.1,   81.5, -999.0
19-10-2022, 00:43:51,     57,    0.2,    9.0,   0.00,   0.00, 1021.2,   81.6, -999.0
19-10-2022, 00:44:01,     82,    0.6,    9.0,   0.00,   0.00, 1021.3,   81.7, -999.0
19-10-2022, 00:44:10,     68,    0.9,    9.1,   0.00,   0.00, 1021.2,   82.0, -999.0
19-10-2022, 00:44:21,     71,    0.2,    9.1,   0.00,   0.00, 1021.1,   82.0, -999.0
19-10-2022, 00:44:31,     67,    0.0,    8.9,   0.00,   0.00, 1021.1,   81.9, -999.0
19-10-2022, 00:44:40,     67,    0.0,    9.1,   0.00,   0.00, 1021.1,   81.9, -999.0
19-10-2022, 00:44:50,     55,    0.5,    9.1,   0.00,   0.00, 1021.2,   82.1, -999.0
19-10-2022, 00:45:00,     54,    0.7,    9.0,   0.00,   0.00, 1021.2,   82.2, -999.0
19-10-2022, 00:45:10,     54,    0.8,    9.1,   0.00,   0.00, 1021.1,   81.9, -999.0
19-10-2022, 00:45:20,     54,    0.0,    9.0,   0.00,   0.00, 1021.1,   81.6, -999.0
19-10-2022, 00:45:30,     54,    0.0,    9.0,   0.00,   0.00, 1021.1,   81.6, -999.0
19-10-2022, 00:45:40,     53,    0.0,    9.0,   0.00,   0.00, 1021.0,   81.5, -999.0
19-10-2022, 00:45:50,     53,    0.0,    9.0,   0.00,   0.00, 1021.0,   81.5, -999.0
19-10-2022, 00:46:00,     53,    0.0,    9.0,   0.00,   0.00, 1021.0,   81.6, -999.0
19-10-2022, 00:46:10,     54,    0.1,    9.1,   0.00,   0.00, 1021.1,   81.8, -999.0
19-10-2022, 00:46:20,     54,    0.1,    9.1,   0.00,   0.00, 1021.1,   81.9, -999.0
19-10-2022, 00:46:30,     53,    0.0,    9.1,   0.00,   0.00, 1021.0,   81.6, -999.0
19-10-2022, 00:46:40,     47,    0.6,    9.1,   0.00,   0.00, 1021.1,   81.8, -999.0